Location: Luz Observatory
(34.5000°N, 117.2833°W)
Time: 14:40:54

Hubble Space Telescope - Visible Passes

Search period start: 27 November 2015 00:00
Search period end: 07 December 2015 00:00
Orbit: 540 x 544 km, 28.5° (Epoch: 27 November)

Date Brightness Start Highest point End Pass type
(mag) Time Alt. Az. Time Alt. Az. Time Alt. Az.
03 Dec 3.7 05:29:39 10° S 05:31:05 12° SSE 05:32:37 10° SE visible
04 Dec 3.5 05:19:28 10° SSW 05:21:45 15° SSE 05:24:07 10° SE visible
05 Dec 3.2 05:09:38 10° SSW 05:12:26 18° SSE 05:15:16 10° ESE visible
06 Dec 2.9 05:00:33 13° SSW 05:03:07 21° SSE 05:06:17 10° ESE visible
